Weather History for Eureka Airport, NV

Change the Weather History Date:

Tuesday, July 9, 2013

  Actual Average Record
Temperature  
Mean Temperature 72 °F -  
Max Temperature 95 °F - - ()
Min Temperature 50 °F - - ()
Cooling Degree Days 8    
Growing Degree Days 22 (Base 50)    
Moisture  
Dew Point 22 °F    
Average Humidity 17    
Maximum Humidity 41    
Minimum Humidity 5    
Precipitation  
Precipitation 0.00 in - - ()
Sea Level Pressure  
Sea Level Pressure 30.23 in    
Wind  
Wind Speed 4 mph (SSE)    
Max Wind Speed 14 mph    
Max Gust Speed -    
Visibility 10 miles    
Events      
T = Trace of Precipitation, MM = Missing Value Source: NWS Daily Summary

Daily Weather History Graph

Daily Weather History Graph

Search for Another Location

Airport:

Trip Planner

Search our weather history database for the weather conditions in past years. The results will help you decide how hot, cold, wet, or windy it might be!

Date:

Astronomy

Jul. 09, 2013 Rise Set
Actual Time 5:24 AM PDT 8:13 PM PDT
Civil Twilight 4:52 AM PDT 8:45 PM PDT
Nautical Twilight 4:12 AM PDT 9:25 PM PDT
Astronomical Twilight 3:26 AM PDT 10:11 PM PDT
Moon 6:52 AM PDT (7/9) 8:53 PM PDT (7/9)
Length of Visible Light 15h 52m
Length of Day
14h 48m
New Moon, 2% of the Moon is Illuminated
Jul 9
New Moon
Jul 15
First Quarter
Jul 22
Full
Jul 29
Last Quarter
Aug 6
New

Hourly Weather History & Observations

Time (PDT) Temp. Dew Point Humidity Pressure Visibility Wind Dir Wind Speed Gust Speed Precip Events Conditions
12:10 AM 59.0 °F 24.8 °F 27% 30.22 in 10.0 mi Calm Calm - N/A   Clear
12:30 AM 59.0 °F 24.8 °F 27% 30.22 in 10.0 mi South 4.6 mph - N/A   Clear
12:50 AM 59.0 °F 23.0 °F 25% 30.22 in 10.0 mi SW 4.6 mph - N/A   Clear
1:10 AM 59.0 °F 23.0 °F 25% 30.22 in 10.0 mi Calm Calm - N/A   Clear
1:30 AM 57.2 °F 24.8 °F 29% 30.22 in 10.0 mi Calm Calm - N/A   Clear
1:50 AM 55.4 °F 24.8 °F 31% 30.22 in 10.0 mi SSW 4.6 mph - N/A   Clear
2:10 AM 53.6 °F 26.6 °F 35% 30.22 in 10.0 mi Calm Calm - N/A   Clear
2:30 AM 53.6 °F 23.0 °F 30% 30.22 in 10.0 mi Calm Calm - N/A   Clear
2:50 AM 53.6 °F 23.0 °F 30% 30.23 in 10.0 mi SSE 5.8 mph - N/A   Clear
3:10 AM 51.8 °F 24.8 °F 35% 30.23 in 10.0 mi South 5.8 mph - N/A   Clear
3:30 AM 51.8 °F 23.0 °F 33% 30.23 in 10.0 mi South 6.9 mph - N/A   Clear
3:50 AM 55.4 °F 23.0 °F 29% 30.23 in 10.0 mi South 6.9 mph - N/A   Clear
4:10 AM 53.6 °F 24.8 °F 33% 30.23 in 10.0 mi SSW 5.8 mph - N/A   Clear
4:30 AM 51.8 °F 28.4 °F 41% 30.24 in 10.0 mi Calm Calm - N/A   Clear
4:50 AM 50.0 °F 24.8 °F 37% 30.25 in 10.0 mi Calm Calm - N/A   Clear
5:10 AM 51.8 °F 24.8 °F 35% 30.25 in 10.0 mi SSW 6.9 mph - N/A   Clear
5:30 AM 51.8 °F 24.8 °F 35% 30.26 in 10.0 mi SSW 6.9 mph - N/A   Clear
5:50 AM 50.0 °F 24.8 °F 37% 30.26 in 10.0 mi SW 5.8 mph - N/A   Clear
6:10 AM 53.6 °F 26.6 °F 35% 30.26 in 10.0 mi Calm Calm - N/A   Clear
6:30 AM 57.2 °F 26.6 °F 31% 30.27 in 10.0 mi SSE 3.5 mph - N/A   Clear
6:50 AM 64.4 °F 24.8 °F 22% 30.28 in 10.0 mi Calm Calm - N/A   Clear
7:10 AM 68.0 °F 24.8 °F 20% 30.29 in 10.0 mi Calm Calm - N/A   Clear
7:30 AM 71.6 °F 26.6 °F 19% 30.29 in 10.0 mi Calm Calm - N/A   Clear
7:50 AM 73.4 °F 26.6 °F 18% 30.29 in 10.0 mi Calm Calm - N/A   Clear
8:10 AM 75.2 °F 24.8 °F 15% 30.30 in 10.0 mi Calm Calm - N/A   Clear
8:30 AM 77.0 °F 26.6 °F 16% 30.30 in 10.0 mi NE 4.6 mph - N/A   Clear
8:50 AM 77.0 °F 28.4 °F 17% 30.30 in 10.0 mi NNE 4.6 mph - N/A   Clear
9:10 AM 80.6 °F 30.2 °F 16% 30.29 in 10.0 mi NNE 5.8 mph - N/A   Clear
9:30 AM 80.6 °F 28.4 °F 15% 30.29 in 10.0 mi North 5.8 mph - N/A   Clear
9:50 AM 82.4 °F 32.0 °F 16% 30.29 in 10.0 mi North 5.8 mph - N/A   Clear
10:10 AM 84.2 °F 28.4 °F 13% 30.28 in 10.0 mi NE 4.6 mph - N/A   Clear
10:30 AM 84.2 °F 26.6 °F 12% 30.28 in 10.0 mi Calm Calm - N/A   Clear
10:50 AM 86.0 °F 28.4 °F 12% 30.28 in 10.0 mi East 5.8 mph - N/A   Clear
11:10 AM 87.8 °F 26.6 °F 11% 30.27 in 10.0 mi NE 4.6 mph - N/A   Clear
11:30 AM 89.6 °F 24.8 °F 10% 30.27 in 10.0 mi Calm Calm - N/A   Clear
11:50 AM 91.4 °F 24.8 °F 9% 30.26 in 10.0 mi WNW 3.5 mph - N/A   Clear
12:10 PM 91.4 °F 24.8 °F 9% 30.26 in 10.0 mi WNW 6.9 mph - N/A   Clear
12:30 PM 91.4 °F 23.0 °F 8% 30.25 in 10.0 mi East 5.8 mph - N/A   Clear
12:50 PM 91.4 °F 23.0 °F 8% 30.25 in 10.0 mi ESE 13.8 mph - N/A   Clear
1:10 PM 91.4 °F 23.0 °F 8% 30.24 in 10.0 mi North 4.6 mph - N/A   Clear
1:30 PM 91.4 °F 24.8 °F 9% 30.24 in 10.0 mi SSE 8.1 mph - N/A   Clear
1:50 PM 93.2 °F 19.4 °F 7% 30.24 in 10.0 mi SSW 8.1 mph - N/A   Clear
2:10 PM 93.2 °F 19.4 °F 7% 30.23 in 10.0 mi West 5.8 mph - N/A   Clear
2:30 PM 93.2 °F 19.4 °F 7% 30.23 in 10.0 mi NW 6.9 mph - N/A   Clear
2:50 PM 93.2 °F 21.2 °F 7% 30.22 in 10.0 mi NNE 6.9 mph - N/A   Clear
3:10 PM 93.2 °F 19.4 °F 7% 30.22 in 10.0 mi ESE 3.5 mph - N/A   Clear
3:30 PM 93.2 °F 17.6 °F 6% 30.20 in 10.0 mi SE 8.1 mph - N/A   Clear
3:50 PM 93.2 °F 17.6 °F 6% 30.20 in 10.0 mi ESE 12.7 mph - N/A   Clear
4:10 PM 95.0 °F 15.8 °F 6% 30.20 in 10.0 mi Calm Calm - N/A   Clear
4:30 PM 93.2 °F 15.8 °F 6% 30.19 in 10.0 mi Calm Calm - N/A   Clear
4:50 PM 93.2 °F 17.6 °F 6% 30.19 in 10.0 mi SE 6.9 mph - N/A   Clear
5:10 PM 93.2 °F 14.0 °F 5% 30.18 in 10.0 mi Calm Calm - N/A   Clear
5:30 PM 93.2 °F 15.8 °F 6% 30.17 in 10.0 mi Calm Calm - N/A   Clear
5:50 PM 93.2 °F 17.6 °F 6% 30.17 in 10.0 mi South 4.6 mph - N/A   Clear
6:10 PM 91.4 °F 14.0 °F 6% 30.17 in 10.0 mi SSE 9.2 mph - N/A   Clear
6:30 PM 89.6 °F 17.6 °F 7% 30.16 in 10.0 mi SE 5.8 mph - N/A   Clear
6:50 PM 89.6 °F 15.8 °F 7% 30.16 in 10.0 mi SE 4.6 mph - N/A   Clear
7:10 PM 84.2 °F 17.6 °F 8% 30.16 in 10.0 mi SSE 6.9 mph - N/A   Clear
7:30 PM 82.4 °F 17.6 °F 9% 30.16 in 10.0 mi SSE 9.2 mph - N/A   Clear
7:50 PM 80.6 °F 17.6 °F 10% 30.17 in 10.0 mi SE 6.9 mph - N/A   Clear
8:10 PM 75.2 °F 24.8 °F 15% 30.17 in 10.0 mi ESE 8.1 mph - N/A   Clear
8:30 PM 73.4 °F 19.4 °F 13% 30.18 in 10.0 mi ESE 8.1 mph - N/A   Clear
8:50 PM 73.4 °F 15.8 °F 11% 30.18 in 10.0 mi Calm Calm - N/A   Clear
9:10 PM 75.2 °F 15.8 °F 11% 30.19 in 10.0 mi South 4.6 mph - N/A   Clear
9:30 PM 75.2 °F 14.0 °F 10% 30.20 in 10.0 mi SE 5.8 mph - N/A   Clear
9:50 PM 75.2 °F 15.8 °F 11% 30.20 in 10.0 mi SE 6.9 mph - N/A   Clear
10:10 PM 73.4 °F 14.0 °F 10% 30.20 in 10.0 mi West 4.6 mph - N/A   Clear
10:30 PM 71.6 °F 14.0 °F 11% 30.20 in 10.0 mi SSE 3.5 mph - N/A   Clear
10:50 PM 71.6 °F 15.8 °F 12% 30.20 in 10.0 mi SSE 4.6 mph - N/A   Clear
11:10 PM 68.0 °F 14.0 °F 12% 30.21 in 10.0 mi SSW 6.9 mph - N/A   Clear
11:30 PM 68.0 °F 15.8 °F 13% 30.21 in 10.0 mi SSW 9.2 mph - N/A   Clear
11:50 PM 66.2 °F 14.0 °F 13% 30.20 in 10.0 mi South 9.2 mph - N/A   Clear